Location: Four Corners
(38.2757°N, 122.4608°W)
Time: 13:08:07
(UTC+00:00)

Cosmos 1536 - Pass Details

Date: 08 December 2019
Orbit: 540 x 559 km, 82.5° (Epoch: 27 January)

Event Time Altitude Azimuth Distance (km) Brightness Sun altitude
Rises 02:35:12 0° 345° (NNW) 2,733 6.4 -20.2°
Reaches altitude 10° 02:37:27 10° 338° (NNW) 1,831 5.6 -20.6°
Maximum altitude 02:41:15 42° 268° (W) 793 4.1 -21.3°
Drops below altitude 10° 02:45:01 10° 197° (SSW) 1,806 5.8 -22.1°
Sets 02:47:13 0° 190° (S) 2,691 6.6 -22.5°
